Year,Month,Day,Hour,Minute,Value (Times are PST for temperature in C)
2015,06,17,00,00,12.90
2015,06,17,00,01,12.90
2015,06,17,00,02,12.80
2015,06,17,00,03,12.80
2015,06,17,00,04,12.80
2015,06,17,00,05,12.80
2015,06,17,00,06,12.90
2015,06,17,00,07,12.80
2015,06,17,00,08,12.80
2015,06,17,00,09,12.80
2015,06,17,00,10,12.80
2015,06,17,00,11,12.80
2015,06,17,00,12,12.80
2015,06,17,00,13,12.80
2015,06,17,00,14,12.70
2015,06,17,00,15,12.80
2015,06,17,00,16,12.80
2015,06,17,00,17,12.80
2015,06,17,00,18,12.80
2015,06,17,00,19,12.80
2015,06,17,00,20,12.80
2015,06,17,00,21,12.80
2015,06,17,00,22,12.80
2015,06,17,00,23,12.80
2015,06,17,00,24,12.80
2015,06,17,00,25,12.80
2015,06,17,00,26,12.80
2015,06,17,00,27,12.80
2015,06,17,00,28,12.70
2015,06,17,00,29,12.70
2015,06,17,00,30,12.70
2015,06,17,00,31,12.70
2015,06,17,00,32,12.70
2015,06,17,00,33,12.70
2015,06,17,00,34,12.70
2015,06,17,00,35,12.70
2015,06,17,00,36,12.70
2015,06,17,00,37,12.70
2015,06,17,00,38,12.60
2015,06,17,00,39,12.60
2015,06,17,00,40,12.60
2015,06,17,00,41,12.50
2015,06,17,00,42,12.50
2015,06,17,00,43,12.50
2015,06,17,00,44,12.50
2015,06,17,00,45,12.50
2015,06,17,00,46,12.40
2015,06,17,00,47,12.40
2015,06,17,00,48,12.40
2015,06,17,00,49,12.40
2015,06,17,00,50,12.40
2015,06,17,00,51,12.40
2015,06,17,00,52,12.30
2015,06,17,00,53,12.30
2015,06,17,00,54,12.30
2015,06,17,00,55,12.30
2015,06,17,00,56,12.30
2015,06,17,00,57,12.30
2015,06,17,00,58,12.20
2015,06,17,00,59,12.20
2015,06,17,01,00,12.20
2015,06,17,01,01,12.20
2015,06,17,01,02,12.20
2015,06,17,01,03,12.10
2015,06,17,01,04,12.10
2015,06,17,01,05,12.10
2015,06,17,01,06,12.10
2015,06,17,01,07,12.10
2015,06,17,01,08,12.10
2015,06,17,01,09,12.10
2015,06,17,01,10,12.10
2015,06,17,01,11,12.00
2015,06,17,01,12,12.00
2015,06,17,01,13,12.00
2015,06,17,01,14,11.90
2015,06,17,01,15,11.90
2015,06,17,01,16,11.90
2015,06,17,01,17,11.90
2015,06,17,01,18,11.90
2015,06,17,01,19,11.90
2015,06,17,01,20,11.90
2015,06,17,01,21,11.90
2015,06,17,01,22,11.90
2015,06,17,01,23,11.90
2015,06,17,01,24,11.90
2015,06,17,01,25,11.90
2015,06,17,01,26,11.90
2015,06,17,01,27,11.90
2015,06,17,01,28,11.90
2015,06,17,01,29,11.90
2015,06,17,01,30,11.80
2015,06,17,01,31,11.80
2015,06,17,01,32,11.80
2015,06,17,01,33,11.80
2015,06,17,01,34,11.80
2015,06,17,01,35,11.70
2015,06,17,01,36,11.70
2015,06,17,01,37,11.70
2015,06,17,01,38,11.70
2015,06,17,01,39,11.60
2015,06,17,01,40,11.60
2015,06,17,01,41,11.60
2015,06,17,01,42,11.60
2015,06,17,01,43,11.60
2015,06,17,01,44,11.60
2015,06,17,01,45,11.60
2015,06,17,01,46,11.60
2015,06,17,01,47,11.50
2015,06,17,01,48,11.50
2015,06,17,01,49,11.50
2015,06,17,01,50,11.50
2015,06,17,01,51,11.50
2015,06,17,01,52,11.40
2015,06,17,01,53,11.40
2015,06,17,01,54,11.40
2015,06,17,01,55,11.40
2015,06,17,01,56,11.40
2015,06,17,01,57,11.40
2015,06,17,01,58,11.40
2015,06,17,01,59,11.40
2015,06,17,02,00,11.40
2015,06,17,02,01,11.40
2015,06,17,02,02,11.40
2015,06,17,02,03,11.40
2015,06,17,02,04,11.40
2015,06,17,02,05,11.40
2015,06,17,02,06,11.40
2015,06,17,02,07,11.40
2015,06,17,02,08,11.40
2015,06,17,02,09,11.40
2015,06,17,02,10,11.40
2015,06,17,02,11,11.40
2015,06,17,02,12,11.40
2015,06,17,02,13,11.40
2015,06,17,02,14,11.40
2015,06,17,02,15,11.40
2015,06,17,02,16,11.40
2015,06,17,02,17,11.40
2015,06,17,02,18,11.40
2015,06,17,02,19,11.40
2015,06,17,02,20,11.40
2015,06,17,02,21,11.40
2015,06,17,02,22,11.40
2015,06,17,02,23,11.40
2015,06,17,02,24,11.40
2015,06,17,02,25,11.40
2015,06,17,02,26,11.40
2015,06,17,02,27,11.30
2015,06,17,02,28,11.30
2015,06,17,02,29,11.30
2015,06,17,02,30,11.30
2015,06,17,02,31,11.30
2015,06,17,02,32,11.30
2015,06,17,02,33,11.30
2015,06,17,02,34,11.20
2015,06,17,02,35,11.20
2015,06,17,02,36,11.20
2015,06,17,02,37,11.20
2015,06,17,02,38,11.20
2015,06,17,02,39,11.20
2015,06,17,02,40,11.20
2015,06,17,02,41,11.20
2015,06,17,02,42,11.20
2015,06,17,02,43,11.20
2015,06,17,02,44,11.20
2015,06,17,02,45,11.20
2015,06,17,02,46,11.20
2015,06,17,02,47,11.20
2015,06,17,02,48,11.20
2015,06,17,02,49,11.20
2015,06,17,02,50,11.20
2015,06,17,02,51,11.20
2015,06,17,02,52,11.20
2015,06,17,02,53,11.20
2015,06,17,02,54,11.20
2015,06,17,02,55,11.20
2015,06,17,02,56,11.20
2015,06,17,02,57,11.10
2015,06,17,02,58,11.10
2015,06,17,02,59,11.10
2015,06,17,03,00,11.10
2015,06,17,03,01,11.10
2015,06,17,03,02,11.10
2015,06,17,03,06,11.00
2015,06,17,03,07,11.00
2015,06,17,03,08,11.00
2015,06,17,03,09,10.90
2015,06,17,03,10,10.90
2015,06,17,03,11,10.90
2015,06,17,03,12,10.90
2015,06,17,03,13,10.90
2015,06,17,03,14,10.90
2015,06,17,03,15,10.90
2015,06,17,03,16,10.90
2015,06,17,03,17,10.90
2015,06,17,03,18,10.90
2015,06,17,03,19,10.90
2015,06,17,03,20,10.90
2015,06,17,03,21,10.90
2015,06,17,03,22,10.90
2015,06,17,03,23,10.90
2015,06,17,03,24,10.90
2015,06,17,03,25,10.90
2015,06,17,03,26,10.90
2015,06,17,03,27,10.90
2015,06,17,03,28,10.90
2015,06,17,03,29,10.90
2015,06,17,03,30,10.90
2015,06,17,03,31,10.90
2015,06,17,03,32,10.90
2015,06,17,03,33,10.90
2015,06,17,03,34,10.90
2015,06,17,03,35,10.90
2015,06,17,03,36,10.90
2015,06,17,03,37,10.90
2015,06,17,03,38,10.90
2015,06,17,03,39,10.90
2015,06,17,03,40,10.90
2015,06,17,03,41,10.90
2015,06,17,03,42,10.90
2015,06,17,03,43,10.90
2015,06,17,03,44,10.90
2015,06,17,03,45,10.90
2015,06,17,03,46,10.90
2015,06,17,03,47,10.90
2015,06,17,03,48,10.90
2015,06,17,03,49,10.80
2015,06,17,03,50,10.80
2015,06,17,03,51,10.80
2015,06,17,03,52,10.80
2015,06,17,03,53,10.80
2015,06,17,03,54,10.80
2015,06,17,03,55,10.80
2015,06,17,03,56,10.80
2015,06,17,03,57,10.80
2015,06,17,03,58,10.90
2015,06,17,03,59,10.90
2015,06,17,04,00,10.90
2015,06,17,04,01,10.90
2015,06,17,04,02,10.90
2015,06,17,04,03,10.90
2015,06,17,04,04,10.90
2015,06,17,04,05,10.90
2015,06,17,04,06,10.90
2015,06,17,04,07,10.90
2015,06,17,04,08,10.90
2015,06,17,04,09,10.90
2015,06,17,04,10,10.90
2015,06,17,04,11,10.90
2015,06,17,04,12,10.90
2015,06,17,04,13,10.90
2015,06,17,04,14,10.90
2015,06,17,04,15,10.90
2015,06,17,04,16,10.90
2015,06,17,04,17,11.00
2015,06,17,04,18,11.00
2015,06,17,04,19,11.00
2015,06,17,04,20,11.00
2015,06,17,04,21,10.90
2015,06,17,04,22,10.90
2015,06,17,04,23,10.90
2015,06,17,04,24,10.90
2015,06,17,04,25,10.90
2015,06,17,04,26,10.90
2015,06,17,04,27,10.90
2015,06,17,04,28,10.90
2015,06,17,04,29,10.90
2015,06,17,04,30,10.90
2015,06,17,04,31,10.90
2015,06,17,04,32,10.90
2015,06,17,04,33,10.90
2015,06,17,04,34,10.90
2015,06,17,04,35,10.90
2015,06,17,04,36,10.90
2015,06,17,04,37,10.90
2015,06,17,04,38,10.90
2015,06,17,04,39,10.90
2015,06,17,04,40,10.90
2015,06,17,04,41,10.90
2015,06,17,04,42,10.90
2015,06,17,04,43,10.90
2015,06,17,04,44,10.90
2015,06,17,04,45,10.90
2015,06,17,04,46,10.90
2015,06,17,04,47,11.00
2015,06,17,04,48,11.00
2015,06,17,04,49,11.00
2015,06,17,04,50,11.00
2015,06,17,04,51,11.00
2015,06,17,04,52,11.00
2015,06,17,04,53,11.00
2015,06,17,04,54,11.00
2015,06,17,04,55,11.10
2015,06,17,04,56,11.00
2015,06,17,04,57,11.10
2015,06,17,04,58,11.10
2015,06,17,04,59,11.00
2015,06,17,05,00,11.00
2015,06,17,05,01,11.00
2015,06,17,05,02,11.00
2015,06,17,05,03,11.00
2015,06,17,05,04,11.00
2015,06,17,05,05,11.00
2015,06,17,05,06,11.00
2015,06,17,05,07,11.00
2015,06,17,05,08,11.00
2015,06,17,05,09,11.00
2015,06,17,05,10,11.00
2015,06,17,05,11,11.00
2015,06,17,05,12,11.00
2015,06,17,05,13,11.00
2015,06,17,05,14,11.10
2015,06,17,05,15,11.10
2015,06,17,05,16,11.00
2015,06,17,05,17,11.00
2015,06,17,05,18,11.00
2015,06,17,05,19,11.00
2015,06,17,05,20,11.00
2015,06,17,05,21,11.00
2015,06,17,05,22,11.00
2015,06,17,05,23,11.00
2015,06,17,05,24,11.00
2015,06,17,05,25,11.00
2015,06,17,05,26,11.00
2015,06,17,05,27,11.00
2015,06,17,05,28,11.00
2015,06,17,05,29,11.10
2015,06,17,05,30,11.10
2015,06,17,05,31,11.10
2015,06,17,05,32,11.10
2015,06,17,05,33,11.10
2015,06,17,05,34,11.10
2015,06,17,05,35,11.10
2015,06,17,05,36,11.10
2015,06,17,05,37,11.10
2015,06,17,05,38,11.10
2015,06,17,05,39,11.10
2015,06,17,05,40,11.10
2015,06,17,05,41,11.10
2015,06,17,05,42,11.10
2015,06,17,05,43,11.10
2015,06,17,05,44,11.10
2015,06,17,05,45,11.10
2015,06,17,05,46,11.10
2015,06,17,05,47,11.10
2015,06,17,05,48,11.10
2015,06,17,05,49,11.10
2015,06,17,05,50,11.10
2015,06,17,05,51,11.10
2015,06,17,05,52,11.20
2015,06,17,05,53,11.10
2015,06,17,05,54,11.10
2015,06,17,05,55,11.10
2015,06,17,05,56,11.10
2015,06,17,05,57,11.10
2015,06,17,05,58,11.10
2015,06,17,05,59,11.10
2015,06,17,06,00,11.10
2015,06,17,06,01,11.10
2015,06,17,06,02,11.10
2015,06,17,06,03,11.10
2015,06,17,06,04,11.10
2015,06,17,06,05,11.10
2015,06,17,06,06,11.10
2015,06,17,06,07,11.10
2015,06,17,06,08,11.10
2015,06,17,06,09,11.20
2015,06,17,06,10,11.20
2015,06,17,06,11,11.20
2015,06,17,06,12,11.20
2015,06,17,06,13,11.10
2015,06,17,06,14,11.20
2015,06,17,06,15,11.20
2015,06,17,06,16,11.20
2015,06,17,06,17,11.20
2015,06,17,06,18,11.20
2015,06,17,06,19,11.20
2015,06,17,06,20,11.20
2015,06,17,06,21,11.20
2015,06,17,06,22,11.20
2015,06,17,06,23,11.20
2015,06,17,06,24,11.20
2015,06,17,06,25,11.20
2015,06,17,06,26,11.20
2015,06,17,06,27,11.20
2015,06,17,06,28,11.20
2015,06,17,06,29,11.20
2015,06,17,06,30,11.20
2015,06,17,06,31,11.30
2015,06,17,06,32,11.30
2015,06,17,06,33,11.30
2015,06,17,06,34,11.30
2015,06,17,06,35,11.30
2015,06,17,06,36,11.30
2015,06,17,06,37,11.30
2015,06,17,06,38,11.30
2015,06,17,06,39,11.40
2015,06,17,06,40,11.40
2015,06,17,06,41,11.40
2015,06,17,06,42,11.40
2015,06,17,06,43,11.40
2015,06,17,06,44,11.50
2015,06,17,06,45,11.50
2015,06,17,06,46,11.60
2015,06,17,06,47,11.60
2015,06,17,06,48,11.60
2015,06,17,06,49,11.60
2015,06,17,06,50,11.60
2015,06,17,06,51,11.70
2015,06,17,06,52,11.70
2015,06,17,06,53,11.70
2015,06,17,06,54,11.70
2015,06,17,06,55,11.70
2015,06,17,06,56,11.70
2015,06,17,06,57,11.70
2015,06,17,06,58,11.70
2015,06,17,06,59,11.70
2015,06,17,07,00,11.70
2015,06,17,07,01,11.70
2015,06,17,07,02,11.70
2015,06,17,07,03,11.60
2015,06,17,07,04,11.60
2015,06,17,07,05,11.60
2015,06,17,07,06,11.60
2015,06,17,07,07,11.60
2015,06,17,07,08,11.60
2015,06,17,07,09,11.60
2015,06,17,07,10,11.60
2015,06,17,07,11,11.70
2015,06,17,07,12,11.70
2015,06,17,07,13,11.70
2015,06,17,07,14,11.70
2015,06,17,07,15,11.80
2015,06,17,07,16,11.80
2015,06,17,07,17,11.80
2015,06,17,07,18,11.80
2015,06,17,07,19,11.80
2015,06,17,07,20,11.80
2015,06,17,07,21,11.90
2015,06,17,07,22,11.90
2015,06,17,07,23,11.90
2015,06,17,07,24,12.00
2015,06,17,07,25,12.00
2015,06,17,07,26,12.10
2015,06,17,07,27,12.10
2015,06,17,07,28,12.10
2015,06,17,07,29,12.10
2015,06,17,07,30,12.20
2015,06,17,07,31,12.20
2015,06,17,07,32,12.20
2015,06,17,07,33,12.20
2015,06,17,07,34,12.30
2015,06,17,07,35,12.30
2015,06,17,07,36,12.40
2015,06,17,07,37,12.40
2015,06,17,07,38,12.50
2015,06,17,07,39,12.50
2015,06,17,07,40,12.60
2015,06,17,07,41,12.60
2015,06,17,07,42,12.60
2015,06,17,07,43,12.60
2015,06,17,07,44,12.70
2015,06,17,07,45,12.70
2015,06,17,07,46,12.70
2015,06,17,07,47,12.70
2015,06,17,07,48,12.70
2015,06,17,07,49,12.70
2015,06,17,07,50,12.70
2015,06,17,07,51,12.70
2015,06,17,07,52,12.70
2015,06,17,07,53,12.70
2015,06,17,07,54,12.70
2015,06,17,07,55,12.70
2015,06,17,07,56,12.70
2015,06,17,07,57,12.70
2015,06,17,07,58,12.70
2015,06,17,07,59,12.70
2015,06,17,08,00,12.80
2015,06,17,08,01,12.80
2015,06,17,08,02,12.80
2015,06,17,08,03,12.90
2015,06,17,08,04,12.90
2015,06,17,08,05,12.90
2015,06,17,08,06,13.00
2015,06,17,08,07,13.00
2015,06,17,08,08,13.00
2015,06,17,08,09,13.00
2015,06,17,08,10,13.00
2015,06,17,08,11,13.00
2015,06,17,08,12,13.10
2015,06,17,08,13,13.10
2015,06,17,08,14,13.10
2015,06,17,08,15,13.10
2015,06,17,08,16,13.10
2015,06,17,08,17,13.10
2015,06,17,08,18,13.10
2015,06,17,08,19,13.10
2015,06,17,08,20,13.10
2015,06,17,08,21,13.10
2015,06,17,08,22,13.10
2015,06,17,08,23,13.10
2015,06,17,08,24,13.20
2015,06,17,08,25,13.20
2015,06,17,08,26,13.20
2015,06,17,08,27,13.20
2015,06,17,08,28,13.20
2015,06,17,08,29,13.30
2015,06,17,08,30,13.30
2015,06,17,08,31,13.30
2015,06,17,08,32,13.40
2015,06,17,08,33,13.40
2015,06,17,08,34,13.50
2015,06,17,08,35,13.50
2015,06,17,08,36,13.60
2015,06,17,08,37,13.60
2015,06,17,08,38,13.70
2015,06,17,08,39,13.80
2015,06,17,08,40,13.80
2015,06,17,08,41,13.80
2015,06,17,08,42,13.80
2015,06,17,08,43,13.80
2015,06,17,08,44,13.90
2015,06,17,08,45,13.90
2015,06,17,08,46,14.00
2015,06,17,08,47,14.20
2015,06,17,08,48,14.30
2015,06,17,08,49,14.40
2015,06,17,08,50,14.50
2015,06,17,08,51,14.60
2015,06,17,08,52,14.60
2015,06,17,08,53,14.70
2015,06,17,08,54,14.80
2015,06,17,08,55,14.80
2015,06,17,08,56,14.80
2015,06,17,08,57,14.80
2015,06,17,08,58,14.80
2015,06,17,08,59,14.80
2015,06,17,09,00,14.80
2015,06,17,09,01,14.90
2015,06,17,09,02,14.90
2015,06,17,09,03,15.00
2015,06,17,09,04,15.00
2015,06,17,09,05,15.10
2015,06,17,09,06,15.10
2015,06,17,09,07,15.20
2015,06,17,09,08,15.20
2015,06,17,09,09,15.20
2015,06,17,09,10,15.20
2015,06,17,09,11,15.20
2015,06,17,09,12,15.10
2015,06,17,09,13,15.10
2015,06,17,09,14,15.10
2015,06,17,09,15,15.10
2015,06,17,09,16,15.20
2015,06,17,09,17,15.20
2015,06,17,09,18,15.30
2015,06,17,09,19,15.30
2015,06,17,09,20,15.30
2015,06,17,09,21,15.30
2015,06,17,09,22,15.30
2015,06,17,09,23,15.30
2015,06,17,09,24,15.30
2015,06,17,09,25,15.30
2015,06,17,09,26,15.30
2015,06,17,09,27,15.30
2015,06,17,09,28,15.40
2015,06,17,09,29,15.50
2015,06,17,09,30,15.50
2015,06,17,09,31,15.50
2015,06,17,09,32,15.50
2015,06,17,09,33,15.50
2015,06,17,09,34,15.60
2015,06,17,09,35,15.60
2015,06,17,09,36,15.70
2015,06,17,09,37,15.70
2015,06,17,09,38,15.80
2015,06,17,09,39,15.90
2015,06,17,09,40,16.00
2015,06,17,09,41,16.10
2015,06,17,09,42,16.20
2015,06,17,09,43,16.20
2015,06,17,09,44,16.30
2015,06,17,09,45,16.30
2015,06,17,09,46,16.30
2015,06,17,09,47,16.30
2015,06,17,09,48,16.30
2015,06,17,09,49,16.20
2015,06,17,09,50,16.20
2015,06,17,09,51,16.20
2015,06,17,09,52,16.10
2015,06,17,09,53,16.10
2015,06,17,09,54,16.10
2015,06,17,09,55,16.20
2015,06,17,09,56,16.20
2015,06,17,09,57,16.20
2015,06,17,09,58,16.10
2015,06,17,09,59,16.10
2015,06,17,10,00,16.20
2015,06,17,10,01,16.30
2015,06,17,10,02,16.30
2015,06,17,10,03,16.30
2015,06,17,10,04,16.30
2015,06,17,10,05,16.30
2015,06,17,10,06,16.30
2015,06,17,10,07,16.40
2015,06,17,10,08,16.40
2015,06,17,10,09,16.40
2015,06,17,10,10,16.50
2015,06,17,10,11,16.50
2015,06,17,10,12,16.60
2015,06,17,10,13,16.60
2015,06,17,10,14,16.60
2015,06,17,10,15,16.60
2015,06,17,10,16,16.70
2015,06,17,10,17,16.70
2015,06,17,10,18,16.70
2015,06,17,10,19,16.80
2015,06,17,10,20,16.80
2015,06,17,10,21,16.90
2015,06,17,10,22,16.90
2015,06,17,10,23,16.90
2015,06,17,10,24,16.90
2015,06,17,10,25,16.90
2015,06,17,10,26,16.90
2015,06,17,10,27,16.90
2015,06,17,10,28,16.90
2015,06,17,10,29,16.80
2015,06,17,10,30,16.90
2015,06,17,10,31,16.90
2015,06,17,10,32,16.90
2015,06,17,10,33,16.90
2015,06,17,10,34,16.90
2015,06,17,10,35,16.90
2015,06,17,10,36,17.00
2015,06,17,10,37,17.00
2015,06,17,10,38,17.10
2015,06,17,10,39,17.10
2015,06,17,10,40,17.10
2015,06,17,10,41,17.20
2015,06,17,10,42,17.20
2015,06,17,10,43,17.20
2015,06,17,10,44,17.20
2015,06,17,10,45,17.20
2015,06,17,10,46,17.30
2015,06,17,10,47,17.30
2015,06,17,10,48,17.40
2015,06,17,10,49,17.40
2015,06,17,10,50,17.40
2015,06,17,10,51,17.40
2015,06,17,10,52,17.40
2015,06,17,10,53,17.40
2015,06,17,10,54,17.40
2015,06,17,10,55,17.40
2015,06,17,10,56,17.40
2015,06,17,10,57,17.50
2015,06,17,10,58,17.50
2015,06,17,10,59,17.60
2015,06,17,11,00,17.60
2015,06,17,11,01,17.70
2015,06,17,11,02,17.80
2015,06,17,11,03,17.90
2015,06,17,11,04,18.00
2015,06,17,11,05,18.10
2015,06,17,11,06,18.20
2015,06,17,11,07,18.30
2015,06,17,11,08,18.40
2015,06,17,11,09,18.50
2015,06,17,11,10,18.50
2015,06,17,11,11,18.50
2015,06,17,11,12,18.50
2015,06,17,11,13,18.40
2015,06,17,11,14,18.30
2015,06,17,11,15,18.30
2015,06,17,11,16,18.30
2015,06,17,11,17,18.30
2015,06,17,11,18,18.20
2015,06,17,11,19,18.20
2015,06,17,11,20,18.10
2015,06,17,11,21,18.10
2015,06,17,11,22,18.00
2015,06,17,11,23,18.00
2015,06,17,11,24,17.90
2015,06,17,11,25,17.90
2015,06,17,11,26,17.80
2015,06,17,11,27,17.80
2015,06,17,11,28,17.90
2015,06,17,11,29,17.90
2015,06,17,11,30,17.90
2015,06,17,11,31,17.90
2015,06,17,11,32,17.90
2015,06,17,11,33,17.80
2015,06,17,11,34,17.90
2015,06,17,11,35,18.00
2015,06,17,11,36,18.10
2015,06,17,11,37,18.10
2015,06,17,11,38,18.10
2015,06,17,11,39,18.10
2015,06,17,11,40,18.20
2015,06,17,11,41,18.20
2015,06,17,11,42,18.20
2015,06,17,11,43,18.20
2015,06,17,11,44,18.20
2015,06,17,11,45,18.30
2015,06,17,11,46,18.40
2015,06,17,11,47,18.50
2015,06,17,11,48,18.70
2015,06,17,11,49,18.80
2015,06,17,11,50,18.90
2015,06,17,11,51,19.00
2015,06,17,11,52,19.00
2015,06,17,11,53,19.10
2015,06,17,11,54,19.10
2015,06,17,11,55,19.10
2015,06,17,11,56,19.10
2015,06,17,11,57,19.20
2015,06,17,11,58,19.30
2015,06,17,11,59,19.50
2015,06,17,12,00,19.60
2015,06,17,12,01,19.60
2015,06,17,12,02,19.70
2015,06,17,12,03,19.70
2015,06,17,12,04,19.80
2015,06,17,12,05,19.80
2015,06,17,12,06,19.90
2015,06,17,12,07,19.90
2015,06,17,12,08,19.90
2015,06,17,12,09,19.80
2015,06,17,12,10,19.80
2015,06,17,12,11,19.90
2015,06,17,12,12,19.90
2015,06,17,12,13,20.00
2015,06,17,12,14,20.00
2015,06,17,12,15,20.10
2015,06,17,12,16,20.10
2015,06,17,12,17,20.20
2015,06,17,12,18,20.30
2015,06,17,12,19,20.50
2015,06,17,12,20,20.60
2015,06,17,12,21,20.70
2015,06,17,12,22,20.70
2015,06,17,12,23,20.70
2015,06,17,12,24,20.60
2015,06,17,12,25,20.70
2015,06,17,12,26,20.70
2015,06,17,12,27,20.80
2015,06,17,12,28,20.90
2015,06,17,12,29,20.90
2015,06,17,12,30,21.00
2015,06,17,12,31,21.10
2015,06,17,12,32,21.20
2015,06,17,12,33,21.20
2015,06,17,12,34,21.30
2015,06,17,12,35,21.30
2015,06,17,12,36,21.20
2015,06,17,12,37,21.10
2015,06,17,12,38,21.00
2015,06,17,12,39,21.00
2015,06,17,12,40,21.00
2015,06,17,12,41,21.10
2015,06,17,12,42,21.20
2015,06,17,12,43,21.30
2015,06,17,12,44,21.30
2015,06,17,12,45,21.30
2015,06,17,12,46,21.30
2015,06,17,12,47,21.30
2015,06,17,12,48,21.20
2015,06,17,12,49,21.20
2015,06,17,12,50,21.20
2015,06,17,12,51,21.30
2015,06,17,12,52,21.30
2015,06,17,12,53,21.30
2015,06,17,12,54,21.30
2015,06,17,12,55,21.40
2015,06,17,12,56,21.60
2015,06,17,12,57,21.60
2015,06,17,12,58,21.60
2015,06,17,12,59,21.60
2015,06,17,13,00,21.60
2015,06,17,13,01,21.60
2015,06,17,13,02,21.70
2015,06,17,13,03,21.80
2015,06,17,13,04,21.80
2015,06,17,13,05,21.80
2015,06,17,13,06,21.70
2015,06,17,13,07,21.70
2015,06,17,13,08,21.70
2015,06,17,13,09,21.70
2015,06,17,13,10,21.80
2015,06,17,13,11,21.80
2015,06,17,13,12,22.00
2015,06,17,13,13,22.10
2015,06,17,13,14,22.20
2015,06,17,13,15,22.30
2015,06,17,13,16,22.30
2015,06,17,13,17,22.50
2015,06,17,13,18,22.60
2015,06,17,13,19,22.60
2015,06,17,13,20,22.60
2015,06,17,13,21,22.60
2015,06,17,13,22,22.60
2015,06,17,13,23,22.60
2015,06,17,13,24,22.60
2015,06,17,13,25,22.60
2015,06,17,13,26,22.60
2015,06,17,13,27,22.50
2015,06,17,13,28,22.50
2015,06,17,13,29,22.50
2015,06,17,13,30,22.60
2015,06,17,13,31,22.70
2015,06,17,13,32,22.70
2015,06,17,13,33,22.80
2015,06,17,13,34,22.80
2015,06,17,13,35,22.90
2015,06,17,13,36,22.80
2015,06,17,13,37,22.90
2015,06,17,13,38,23.00
2015,06,17,13,39,23.10
2015,06,17,13,40,23.20
2015,06,17,13,41,23.30
2015,06,17,13,42,23.40
2015,06,17,13,43,23.40
2015,06,17,13,44,23.30
2015,06,17,13,45,23.20
2015,06,17,13,46,23.20
2015,06,17,13,47,23.20
2015,06,17,13,48,23.20
2015,06,17,13,49,23.20
2015,06,17,13,50,23.10
2015,06,17,13,51,23.10
2015,06,17,13,52,23.10
2015,06,17,13,53,23.20
2015,06,17,13,54,23.20
2015,06,17,13,55,23.20
2015,06,17,13,56,23.30
2015,06,17,13,57,23.30
2015,06,17,13,58,23.20
2015,06,17,13,59,23.20
2015,06,17,14,00,23.20
2015,06,17,14,01,23.20
2015,06,17,14,02,23.10
2015,06,17,14,03,23.10
2015,06,17,14,04,23.00
2015,06,17,14,05,23.00
2015,06,17,14,06,22.90
2015,06,17,14,07,22.90
2015,06,17,14,08,22.90
2015,06,17,14,09,22.80
2015,06,17,14,10,22.80
2015,06,17,14,11,22.80
2015,06,17,14,12,22.80
2015,06,17,14,13,22.80
2015,06,17,14,14,22.90
2015,06,17,14,15,22.90
2015,06,17,14,16,23.00
2015,06,17,14,17,23.10
2015,06,17,14,18,23.20
2015,06,17,14,19,23.30
2015,06,17,14,20,23.40
2015,06,17,14,21,23.50
2015,06,17,14,22,23.50
2015,06,17,14,23,23.50
2015,06,17,14,24,23.60
2015,06,17,14,25,23.60
2015,06,17,14,26,23.60
2015,06,17,14,27,23.50
2015,06,17,14,28,23.50
2015,06,17,14,29,23.40
2015,06,17,14,30,23.40
2015,06,17,14,31,23.50
2015,06,17,14,32,23.60
2015,06,17,14,33,23.60
2015,06,17,14,34,23.70
2015,06,17,14,35,23.80
2015,06,17,14,36,23.90
2015,06,17,14,37,24.00
2015,06,17,14,38,24.10
2015,06,17,14,39,24.20
2015,06,17,14,40,24.30
2015,06,17,14,41,24.40
2015,06,17,14,42,24.40
2015,06,17,14,43,24.40
2015,06,17,14,44,24.30
2015,06,17,14,45,24.40
2015,06,17,14,46,24.60
2015,06,17,14,47,24.80
2015,06,17,14,48,24.90
2015,06,17,14,49,24.90
2015,06,17,14,50,25.00
2015,06,17,14,51,25.00
2015,06,17,14,52,24.90
2015,06,17,14,53,24.90
2015,06,17,14,54,25.00
2015,06,17,14,55,25.10
2015,06,17,14,56,25.20
2015,06,17,14,57,25.10
2015,06,17,14,58,25.00
2015,06,17,14,59,24.80
2015,06,17,15,00,24.80
2015,06,17,15,01,24.80
2015,06,17,15,02,24.80
2015,06,17,15,03,24.80
2015,06,17,15,04,24.70
2015,06,17,15,05,24.70
2015,06,17,15,06,24.60
2015,06,17,15,07,24.60
2015,06,17,15,08,24.50
2015,06,17,15,09,24.40
2015,06,17,15,10,24.30
2015,06,17,15,11,24.30
2015,06,17,15,12,24.10
2015,06,17,15,13,24.10
2015,06,17,15,14,24.10
2015,06,17,15,15,24.10
2015,06,17,15,16,24.20
2015,06,17,15,17,24.30
2015,06,17,15,18,24.30
2015,06,17,15,19,24.30
2015,06,17,15,20,24.30
2015,06,17,15,21,24.20
2015,06,17,15,22,24.20
2015,06,17,15,23,24.10
2015,06,17,15,24,24.00
2015,06,17,15,25,24.00
2015,06,17,15,26,24.00
2015,06,17,15,27,24.00
2015,06,17,15,28,24.00
2015,06,17,15,29,24.10
2015,06,17,15,30,24.10
2015,06,17,15,31,24.10
2015,06,17,15,32,24.10
2015,06,17,15,33,24.20
2015,06,17,15,34,24.10
2015,06,17,15,35,24.00
2015,06,17,15,36,23.90
2015,06,17,15,37,23.80
2015,06,17,15,38,23.80
2015,06,17,15,39,23.80
2015,06,17,15,40,23.90
2015,06,17,15,41,23.90
2015,06,17,15,42,23.90
2015,06,17,15,43,23.80
2015,06,17,15,44,23.70
2015,06,17,15,45,23.70
2015,06,17,15,46,23.80
2015,06,17,15,47,23.80
2015,06,17,15,48,23.70
2015,06,17,15,49,23.70
2015,06,17,15,50,23.60
2015,06,17,15,51,23.50
2015,06,17,15,52,23.50
2015,06,17,15,53,23.50
2015,06,17,15,54,23.60
2015,06,17,15,55,23.60
2015,06,17,15,56,23.70
2015,06,17,15,57,23.70
2015,06,17,15,58,23.70
2015,06,17,15,59,23.60
2015,06,17,16,00,23.40
2015,06,17,16,01,23.40
2015,06,17,16,02,23.40
2015,06,17,16,03,23.30
2015,06,17,16,04,23.30
2015,06,17,16,05,23.30
2015,06,17,16,06,23.20
2015,06,17,16,07,23.20
2015,06,17,16,08,23.30
2015,06,17,16,09,23.30
2015,06,17,16,10,23.30
2015,06,17,16,11,23.20
2015,06,17,16,12,23.20
2015,06,17,16,13,23.10
2015,06,17,16,14,23.00
2015,06,17,16,15,23.00
2015,06,17,16,16,23.00
2015,06,17,16,17,23.00
2015,06,17,16,18,23.00
2015,06,17,16,19,23.00
2015,06,17,16,20,23.10
2015,06,17,16,21,23.20
2015,06,17,16,22,23.20
2015,06,17,16,23,23.20
2015,06,17,16,24,23.20
2015,06,17,16,25,23.40
2015,06,17,16,26,23.30
2015,06,17,16,27,23.30
2015,06,17,16,28,23.30
2015,06,17,16,29,23.20
2015,06,17,16,30,23.20
2015,06,17,16,31,23.20
2015,06,17,16,32,23.20
2015,06,17,16,33,23.20
2015,06,17,16,34,23.20
2015,06,17,16,35,23.10
2015,06,17,16,36,23.10
2015,06,17,16,37,23.00
2015,06,17,16,38,22.90
2015,06,17,16,39,22.80
2015,06,17,16,40,22.80
2015,06,17,16,41,22.80
2015,06,17,16,42,22.80
2015,06,17,16,43,22.80
2015,06,17,16,44,22.80
2015,06,17,16,45,22.80
2015,06,17,16,46,22.80
2015,06,17,16,47,22.70
2015,06,17,16,48,22.70
2015,06,17,16,49,22.70
2015,06,17,16,50,22.80
2015,06,17,16,51,22.80
2015,06,17,16,52,22.70
2015,06,17,16,53,22.70
2015,06,17,16,54,22.70
2015,06,17,16,55,22.70
2015,06,17,16,56,22.80
2015,06,17,16,57,22.90
2015,06,17,16,58,23.00
2015,06,17,16,59,23.10
2015,06,17,17,00,23.20
2015,06,17,17,01,23.20
2015,06,17,17,02,23.20
2015,06,17,17,03,23.20
2015,06,17,17,04,23.10
2015,06,17,17,05,23.10
2015,06,17,17,06,23.00
2015,06,17,17,07,23.00
2015,06,17,17,08,22.90
2015,06,17,17,09,22.80
2015,06,17,17,10,22.80
2015,06,17,17,11,22.90
2015,06,17,17,12,22.90
2015,06,17,17,13,22.90
2015,06,17,17,14,23.00
2015,06,17,17,15,23.00
2015,06,17,17,16,23.00
2015,06,17,17,17,23.00
2015,06,17,17,18,23.10
2015,06,17,17,19,23.10
2015,06,17,17,20,23.10
2015,06,17,17,21,23.20
2015,06,17,17,22,23.20